Location: Newark
(51.0500°N, 12.4500°E)
Time: 01:13:46
(UTC+00:00)

Tiros 1 - Pass Details

Date: 22 February 2020
Orbit: 630 x 664 km, 48.4° (Epoch: 28 March)

Event Time Altitude Azimuth Distance (km) Brightness Sun altitude
Rises 07:47:08 0° 276° (W) 2,918 10.0 12.8°
Reaches altitude 10° 07:50:34 10° 250° (WSW) 2,008 9.4 13.3°
Maximum altitude 07:52:45 13° 221° (SW) 1,795 9.5 13.6°
Drops below altitude 10° 07:54:57 10° 193° (SSW) 2,007 10.1 13.8°
Sets 07:58:23 0° 166° (SSE) 2,916 11.4 14.3°
